📊 Raw Sensor Data
Showing records 33051 to 33075 of 84,749 total
| ID | Distance (ft) | Battery V | Battery A | Int Temp (°F) | Int Humid (%) | Ext Temp (°F) | Solar V | RSSI | SNR | Time Stamp |
|---|---|---|---|---|---|---|---|---|---|---|
| 51711 | 14.6 | 4.01 | 0 | 92 | 49 | 82 | 5.10 | -76 | 8 | 09/11/2025 04:45 PM |
| 51710 | 14.7 | 4.12 | 5 | 96 | 47 | 85 | 5.10 | -75 | 8 | 09/11/2025 04:30 PM |
| 51709 | 14.7 | 4.01 | 5 | 98 | 45 | 83 | 5.10 | -74 | 7 | 09/11/2025 04:15 PM |
| 51708 | 14.7 | 4.10 | 5 | 100 | 44 | 89 | 5.10 | -76 | 8 | 09/11/2025 04:00 PM |
| 51707 | 14.7 | 4.01 | 0 | 100 | 43 | 83 | 5.10 | -76 | 8 | 09/11/2025 03:45 PM |
| 51706 | 14.8 | 4.08 | 5 | 101 | 42 | 89 | 5.10 | -76 | 8 | 09/11/2025 03:30 PM |
| 51705 | 14.7 | 4.01 | 0 | 100 | 42 | 83 | 5.10 | -75 | 6 | 09/11/2025 03:15 PM |
| 51704 | 14.8 | 4.01 | 0 | 99 | 41 | 87 | 5.10 | -77 | 8 | 09/11/2025 03:00 PM |
| 51703 | 14.7 | 4.01 | 0 | 98 | 41 | 85 | 5.10 | -76 | 8 | 09/11/2025 02:45 PM |
| 51702 | 14.8 | 4.01 | 5 | 97 | 40 | 81 | 5.10 | -75 | 8 | 09/11/2025 02:30 PM |
| 51701 | 14.7 | 4.01 | 0 | 95 | 40 | 82 | 5.10 | -76 | 8 | 09/11/2025 02:15 PM |
| 51700 | 14.7 | 4.01 | 5 | 94 | 40 | 84 | 5.10 | -76 | 8 | 09/11/2025 02:00 PM |
| 51699 | 14.7 | 4.01 | 5 | 91 | 41 | 82 | 5.10 | -75 | 8 | 09/11/2025 01:45 PM |
| 51698 | 14.8 | 4.01 | 0 | 91 | 41 | 82 | 5.10 | -75 | 8 | 09/11/2025 01:30 PM |
| 51697 | 13.8 | 4.01 | 5 | 89 | 41 | 80 | 5.10 | -76 | 8 | 09/11/2025 01:15 PM |
| 51696 | 14.8 | 4.01 | 0 | 88 | 42 | 80 | 5.10 | -75 | 7 | 09/11/2025 01:00 PM |
| 51695 | 14.7 | 4.01 | 0 | 86 | 42 | 77 | 5.10 | -74 | 7 | 09/11/2025 12:45 PM |
| 51694 | 14.8 | 4.04 | 5 | 86 | 41 | 79 | 5.10 | -76 | 8 | 09/11/2025 12:15 PM |
| 51693 | 14.7 | 4.05 | 5 | 85 | 41 | 81 | 5.10 | -74 | 7 | 09/11/2025 12:00 PM |
| 51692 | 14.7 | 4.01 | 0 | 83 | 42 | 75 | 5.10 | -72 | 8 | 09/11/2025 11:45 AM |
| 51691 | 14.8 | 4.01 | 5 | 82 | 42 | 80 | 5.10 | -75 | 8 | 09/11/2025 11:30 AM |
| 51690 | 14.8 | 4.01 | 5 | 82 | 41 | 80 | 5.10 | -74 | 8 | 09/11/2025 11:15 AM |
| 51689 | 14.8 | 4.01 | 5 | 80 | 41 | 80 | 5.10 | -73 | 8 | 09/11/2025 11:00 AM |
| 51688 | 14.8 | 4.01 | 5 | 79 | 41 | 79 | 5.10 | -73 | 7 | 09/11/2025 10:45 AM |
| 51687 | 14.7 | 4.01 | 5 | 76 | 42 | 77 | 5.10 | -72 | 8 | 09/11/2025 10:30 AM |